Погода в Октябрьске

Россия / Самарская область     53°09′50″N   48°40′14″E
темп.,
°C
ветер,
м/с
пор.,
м/с
влажн.,
%
обл.,
%
осадки,
мм/ч
давл.,
гПа
погр.,
м
5 марта, пт
пт501:00−1юз51191100 0.0 1000399
04:00−2юз3997100 0.3 1000302
07:00−2юз3996100 0.4 1000356
10:00−1з61096100 1.0 1001639
13:00−2ссв5795100 0.6 1002481
16:00−1с359099 0.8 1005513
19:00−6ссв119487 0.1 100921
22:00−9сз228944 0.1 101221
6 марта, сб
сб601:00−10з229122 0.0 101321
04:00−11з339111 0.0 101522
07:00−12з239356 0.0 101521
10:00−9зсз369068 0.0 1016241
13:00−6сз3587100 0.0 1016376
16:00−7ссз3483100 0.0 1015420
19:00−10св2288100 0.0 101522
22:00−12ссв2283100 0.0 101421
7 марта, вс
вс701:00−15с128178 0.0 101320
04:00−16зсз128239 0.0 101320
07:00−16з228918 0.0 101320
10:00−12з369220 0.0 1013242
13:00−7зюз478836 0.0 1012575
16:00−5юз588467 0.1 1011983
19:00−8ююз4129196 0.0 1009388
22:00−7ююз5149198 0.1 1006711
8 марта, пн
пн801:00−6ююз81694100 0.8 1001969
04:00−4юз91693100 1.6 9991063
07:00−9з6158650 0.3 1001449
10:00−9юз6118425 0.3 1004389
13:00−5ююз610782 0.0 1004726
16:00−5ю698750 0.0 1001639
19:00−3ююз5995100 0.9 999550
22:00−7з61379100 1.0 1000745
9 марта, вт
вт901:00−9з7168533 0.0 1003616
04:00−12з6158717 0.0 1006440
07:00−14з49910 0.0 1009171
10:00−11з59880 0.0 1011438
13:00−9зюз478554 0.0 1012642
16:00−8з468477 0.1 1012728
19:00−10з2291100 0.1 101221
22:00−13сз2390100 0.1 101426